Time,TemperatureF,DewpointF,PressureIn,WindDirection,WindDirectionDegrees,WindSpeedMPH,WindSpeedGustMPH,Humidity,HourlyPrecipIn,Conditions,Clouds,dailyrainin,SoftwareType,DateUTC
2013-09-26 00:04:00,75.7,73.0,29.80,SW,222,0.0,3.0,91,0.00,,,0.00,weatherlink.com 1.10,2013-09-26 04:04:00,
2013-09-26 00:19:00,75.4,73.0,29.80,WSW,248,0.0,4.0,92,0.00,,,0.00,weatherlink.com 1.10,2013-09-26 04:19:00,
2013-09-26 00:34:00,75.1,73.0,29.80,SW,232,1.0,2.0,93,0.00,,,0.00,weatherlink.com 1.10,2013-09-26 04:34:00,
2013-09-26 00:49:00,74.8,73.0,29.79,WSW,239,0.0,2.0,93,0.00,,,0.00,weatherlink.com 1.10,2013-09-26 04:49:00,
2013-09-26 01:04:00,74.6,73.0,29.79,WSW,248,0.0,2.0,94,0.00,,,0.00,weatherlink.com 1.10,2013-09-26 05:04:00,
2013-09-26 01:19:00,74.5,73.0,29.79,SSE,149,0.0,3.0,94,0.00,,,0.00,weatherlink.com 1.10,2013-09-26 05:19:00,
2013-09-26 01:34:00,74.4,73.0,29.78,SSW,212,0.0,2.0,94,0.00,,,0.00,weatherlink.com 1.10,2013-09-26 05:34:00,
2013-09-26 01:49:00,74.3,73.0,29.78,ESE,122,1.0,3.0,94,0.00,,,0.00,weatherlink.com 1.10,2013-09-26 05:49:00,
2013-09-26 02:04:00,74.4,73.0,29.78,ESE,113,1.0,6.0,94,0.00,,,0.00,weatherlink.com 1.10,2013-09-26 06:04:00,
2013-09-26 02:19:00,74.5,73.0,29.78,SE,134,0.0,4.0,94,0.00,,,0.00,weatherlink.com 1.10,2013-09-26 06:19:00,
2013-09-26 02:34:00,74.5,73.0,29.78,West,259,4.0,5.0,94,0.00,,,0.00,weatherlink.com 1.10,2013-09-26 06:34:00,
2013-09-26 02:49:00,74.4,72.0,29.77,West,262,2.0,4.0,93,0.00,,,0.00,weatherlink.com 1.10,2013-09-26 06:49:00,
2013-09-26 03:04:00,74.4,72.0,29.77,SSE,148,0.0,5.0,93,0.00,,,0.00,weatherlink.com 1.10,2013-09-26 07:04:00,
2013-09-26 03:19:00,74.2,72.0,29.77,West,269,1.0,2.0,94,0.00,,,0.00,weatherlink.com 1.10,2013-09-26 07:19:00,
2013-09-26 03:34:00,74.1,72.0,29.77,WSW,248,0.0,3.0,94,0.00,,,0.00,weatherlink.com 1.10,2013-09-26 07:34:00,
2013-09-26 03:49:00,74.1,73.0,29.76,West,263,4.0,5.0,95,0.00,,,0.00,weatherlink.com 1.10,2013-09-26 07:49:00,
2013-09-26 04:04:00,74.1,73.0,29.76,West,269,1.0,4.0,95,0.00,,,0.00,weatherlink.com 1.10,2013-09-26 08:04:00,
2013-09-26 04:19:00,74.1,73.0,29.76,SW,235,1.0,4.0,95,0.00,,,0.00,weatherlink.com 1.10,2013-09-26 08:19:00,
2013-09-26 04:34:00,74.0,73.0,29.76,South,191,0.0,2.0,95,0.00,,,0.00,weatherlink.com 1.10,2013-09-26 08:34:00,
2013-09-26 04:49:00,73.9,73.0,29.76,WSW,240,0.0,2.0,96,0.00,,,0.00,weatherlink.com 1.10,2013-09-26 08:49:00,
2013-09-26 05:04:00,73.9,73.0,29.76,WSW,238,0.0,3.0,96,0.00,,,0.00,weatherlink.com 1.10,2013-09-26 09:04:00,
2013-09-26 05:19:00,73.9,73.0,29.77,SW,224,0.0,3.0,96,0.00,,,0.00,weatherlink.com 1.10,2013-09-26 09:19:00,
2013-09-26 05:34:00,74.0,73.0,29.77,SW,224,0.0,2.0,96,0.00,,,0.00,weatherlink.com 1.10,2013-09-26 09:34:00,
2013-09-26 05:49:00,73.9,73.0,29.76,SW,228,0.0,3.0,96,0.00,,,0.00,weatherlink.com 1.10,2013-09-26 09:49:00,
2013-09-26 06:04:00,73.9,73.0,29.77,ESE,120,0.0,3.0,96,0.00,,,0.00,weatherlink.com 1.10,2013-09-26 10:04:00,
2013-09-26 06:19:00,74.0,73.0,29.77,West,277,0.0,2.0,97,0.00,,,0.00,weatherlink.com 1.10,2013-09-26 10:19:00,
2013-09-26 06:34:00,74.3,73.0,29.77,WSW,252,0.0,3.0,96,0.00,,,0.00,weatherlink.com 1.10,2013-09-26 10:34:00,
2013-09-26 06:49:00,74.3,73.0,29.78,NE,43,0.0,1.0,96,0.00,,,0.00,weatherlink.com 1.10,2013-09-26 10:49:00,
2013-09-26 07:05:00,74.4,74.0,29.78,WSW,253,3.0,3.0,97,0.00,,,0.00,weatherlink.com 1.10,2013-09-26 11:05:00,
2013-09-26 07:20:00,74.3,73.0,29.79,WNW,287,0.0,2.0,97,0.00,,,0.00,weatherlink.com 1.10,2013-09-26 11:20:00,
2013-09-26 07:35:00,74.4,74.0,29.79,South,173,0.0,2.0,97,0.00,,,0.00,weatherlink.com 1.10,2013-09-26 11:35:00,
2013-09-26 07:50:00,74.6,74.0,29.79,SW,232,0.0,2.0,97,0.00,,,0.00,weatherlink.com 1.10,2013-09-26 11:50:00,
2013-09-26 08:05:00,75.5,75.0,29.79,SSW,212,0.0,1.0,97,0.00,,,0.00,weatherlink.com 1.10,2013-09-26 12:05:00,
2013-09-26 08:20:00,76.2,75.0,29.80,WNW,283,2.0,3.0,96,0.00,,,0.00,weatherlink.com 1.10,2013-09-26 12:20:00,
2013-09-26 08:35:00,77.1,76.0,29.80,WNW,298,2.0,4.0,95,0.00,,,0.00,weatherlink.com 1.10,2013-09-26 12:35:00,
2013-09-26 08:50:00,78.0,76.0,29.80,WNW,295,1.0,6.0,94,0.00,,,0.00,weatherlink.com 1.10,2013-09-26 12:50:00,
2013-09-26 09:05:00,79.4,77.0,29.81,NW,317,0.0,7.0,92,0.00,,,0.00,weatherlink.com 1.10,2013-09-26 13:05:00,
2013-09-26 09:20:00,80.7,78.0,29.81,NW,311,0.0,5.0,90,0.00,,,0.00,weatherlink.com 1.10,2013-09-26 13:20:00,
2013-09-26 09:35:00,81.7,78.0,29.81,NNW,330,3.0,6.0,89,0.00,,,0.00,weatherlink.com 1.10,2013-09-26 13:35:00,
2013-09-26 09:50:00,82.5,78.0,29.81,NW,309,1.0,8.0,87,0.00,,,0.00,weatherlink.com 1.10,2013-09-26 13:50:00,
2013-09-26 10:05:00,83.3,78.0,29.81,NW,306,2.0,6.0,85,0.00,,,0.00,weatherlink.com 1.10,2013-09-26 14:05:00,
2013-09-26 10:20:00,83.8,78.0,29.82,WNW,283,2.0,9.0,82,0.00,,,0.00,weatherlink.com 1.10,2013-09-26 14:20:00,
2013-09-26 10:35:00,84.4,78.0,29.81,NW,316,3.0,9.0,81,0.00,,,0.00,weatherlink.com 1.10,2013-09-26 14:35:00,
2013-09-26 10:50:00,85.1,78.0,29.81,West,275,3.0,11.0,79,0.00,,,0.00,weatherlink.com 1.10,2013-09-26 14:50:00,
2013-09-26 11:05:00,85.9,78.0,29.81,West,277,1.0,9.0,77,0.00,,,0.00,weatherlink.com 1.10,2013-09-26 15:05:00,
2013-09-26 11:20:00,86.0,78.0,29.81,North,353,2.0,7.0,77,0.00,,,0.00,weatherlink.com 1.10,2013-09-26 15:20:00,
2013-09-26 11:35:00,87.3,77.0,29.80,NNW,340,4.0,10.0,72,0.00,,,0.00,weatherlink.com 1.10,2013-09-26 15:35:00,
2013-09-26 11:50:00,88.6,75.0,29.80,WSW,252,11.0,11.0,65,0.00,,,0.00,weatherlink.com 1.10,2013-09-26 15:50:00,
2013-09-26 12:05:00,89.1,76.0,29.80,SSW,210,6.0,14.0,66,0.00,,,0.00,weatherlink.com 1.10,2013-09-26 16:05:00,
2013-09-26 12:20:00,88.8,76.0,29.80,NW,310,5.0,13.0,66,0.00,,,0.00,weatherlink.com 1.10,2013-09-26 16:20:00,
2013-09-26 12:35:00,88.5,77.0,29.80,NW,309,4.0,7.0,69,0.00,,,0.00,weatherlink.com 1.10,2013-09-26 16:35:00,
2013-09-26 12:50:00,87.4,78.0,29.80,NW,306,3.0,9.0,74,0.00,,,0.00,weatherlink.com 1.10,2013-09-26 16:50:00,
2013-09-26 13:05:00,88.1,79.0,29.79,NNW,346,5.0,10.0,75,0.00,,,0.00,weatherlink.com 1.10,2013-09-26 17:05:00,
2013-09-26 13:20:00,88.6,79.0,29.79,WNW,283,5.0,8.0,72,0.00,,,0.00,weatherlink.com 1.10,2013-09-26 17:20:00,
2013-09-26 13:35:00,87.4,77.0,29.78,WNW,300,6.0,12.0,72,0.00,,,0.00,weatherlink.com 1.10,2013-09-26 17:35:00,
2013-09-26 13:50:00,87.6,78.0,29.77,WNW,288,4.0,10.0,73,0.00,,,0.00,weatherlink.com 1.10,2013-09-26 17:50:00,
2013-09-26 14:05:00,88.3,78.0,29.76,NNW,345,4.0,12.0,71,0.00,,,0.00,weatherlink.com 1.10,2013-09-26 18:05:00,
2013-09-26 14:21:00,88.3,78.0,29.75,NW,326,4.0,10.0,72,0.00,,,0.00,weatherlink.com 1.10,2013-09-26 18:21:00,
2013-09-26 14:36:00,88.8,76.0,29.75,NW,314,4.0,13.0,66,0.00,,,0.00,weatherlink.com 1.10,2013-09-26 18:36:00,
2013-09-26 14:51:00,88.6,76.0,29.74,WNW,295,3.0,13.0,67,0.00,,,0.00,weatherlink.com 1.10,2013-09-26 18:51:00,
2013-09-26 15:06:00,88.0,76.0,29.74,WSW,245,3.0,11.0,68,0.00,,,0.00,weatherlink.com 1.10,2013-09-26 19:06:00,
2013-09-26 15:21:00,88.1,77.0,29.74,NNW,336,3.0,11.0,70,0.00,,,0.00,weatherlink.com 1.10,2013-09-26 19:21:00,
2013-09-26 15:36:00,87.6,76.0,29.74,NW,304,4.0,11.0,69,0.00,,,0.00,weatherlink.com 1.10,2013-09-26 19:36:00,
2013-09-26 15:51:00,87.9,77.0,29.75,NNW,330,3.0,10.0,69,0.00,,,0.00,weatherlink.com 1.10,2013-09-26 19:51:00,
2013-09-26 16:06:00,89.2,75.0,29.75,NW,323,2.0,12.0,63,0.00,,,0.00,weatherlink.com 1.10,2013-09-26 20:06:00,
2013-09-26 16:21:00,88.8,75.0,29.75,WNW,298,2.0,8.0,64,0.00,,,0.00,weatherlink.com 1.10,2013-09-26 20:21:00,
2013-09-26 16:36:00,89.3,74.0,29.75,NW,326,2.0,12.0,60,0.00,,,0.00,weatherlink.com 1.10,2013-09-26 20:36:00,
2013-09-26 16:51:00,90.3,74.0,29.75,NW,319,3.0,9.0,59,0.00,,,0.00,weatherlink.com 1.10,2013-09-26 20:51:00,
2013-09-26 17:06:00,90.4,73.0,29.75,NW,313,3.0,11.0,57,0.00,,,0.00,weatherlink.com 1.10,2013-09-26 21:06:00,
2013-09-26 17:21:00,90.7,73.0,29.75,North,353,3.0,7.0,56,0.00,,,0.00,weatherlink.com 1.10,2013-09-26 21:21:00,
2013-09-26 17:51:00,86.3,77.0,29.76,NNW,330,4.0,10.0,73,0.00,,,0.00,weatherlink.com 1.10,2013-09-26 21:51:00,
2013-09-26 18:06:00,83.4,76.0,29.77,West,266,4.0,12.0,78,0.00,,,0.00,weatherlink.com 1.10,2013-09-26 22:06:00,
2013-09-26 18:36:00,81.5,75.0,29.78,North,9,2.0,10.0,81,0.00,,,0.00,weatherlink.com 1.10,2013-09-26 22:36:00,
2013-09-26 18:51:00,81.0,75.0,29.79,North,1,8.0,10.0,81,0.00,,,0.00,weatherlink.com 1.10,2013-09-26 22:51:00,
2013-09-26 19:06:00,80.4,75.0,29.79,North,356,0.0,5.0,82,0.00,,,0.00,weatherlink.com 1.10,2013-09-26 23:06:00,
2013-09-26 19:21:00,80.1,75.0,29.79,North,357,5.0,8.0,83,0.00,,,0.00,weatherlink.com 1.10,2013-09-26 23:21:00,
2013-09-26 19:36:00,79.6,74.0,29.79,North,9,1.0,7.0,83,0.00,,,0.00,weatherlink.com 1.10,2013-09-26 23:36:00,
2013-09-26 19:51:00,79.2,74.0,29.79,WNW,292,2.0,7.0,83,0.00,,,0.00,weatherlink.com 1.10,2013-09-26 23:51:00,
2013-09-26 20:06:00,79.0,74.0,29.80,NNE,12,5.0,7.0,84,0.00,,,0.00,weatherlink.com 1.10,2013-09-27 00:06:00,
2013-09-26 20:21:00,78.7,74.0,29.80,North,5,2.0,7.0,85,0.00,,,0.00,weatherlink.com 1.10,2013-09-27 00:21:00,
2013-09-26 20:36:00,78.5,74.0,29.81,NNW,340,2.0,8.0,85,0.00,,,0.00,weatherlink.com 1.10,2013-09-27 00:36:00,
2013-09-26 20:51:00,78.2,74.0,29.81,NW,325,1.0,8.0,86,0.00,,,0.00,weatherlink.com 1.10,2013-09-27 00:51:00,
2013-09-26 21:06:00,78.0,74.0,29.81,NNW,333,2.0,8.0,86,0.00,,,0.00,weatherlink.com 1.10,2013-09-27 01:06:00,
2013-09-26 21:21:00,77.8,74.0,29.81,NNW,329,1.0,9.0,87,0.00,,,0.00,weatherlink.com 1.10,2013-09-27 01:21:00,
2013-09-26 21:36:00,77.6,74.0,29.82,NW,305,2.0,7.0,88,0.00,,,0.00,weatherlink.com 1.10,2013-09-27 01:36:00,
2013-09-26 21:51:00,77.5,74.0,29.82,NW,307,3.0,7.0,88,0.00,,,0.00,weatherlink.com 1.10,2013-09-27 01:51:00,
2013-09-26 22:06:00,77.2,74.0,29.82,NW,322,1.0,5.0,88,0.00,,,0.00,weatherlink.com 1.10,2013-09-27 02:06:00,
2013-09-26 22:21:00,77.0,73.0,29.82,NNE,13,4.0,6.0,88,0.00,,,0.00,weatherlink.com 1.10,2013-09-27 02:21:00,
2013-09-26 22:36:00,76.7,73.0,29.83,North,349,1.0,4.0,88,0.00,,,0.00,weatherlink.com 1.10,2013-09-27 02:36:00,
2013-09-26 22:51:00,76.5,73.0,29.83,NW,309,1.0,6.0,88,0.00,,,0.00,weatherlink.com 1.10,2013-09-27 02:51:00,
2013-09-26 23:06:00,76.4,72.0,29.83,NNE,27,5.0,5.0,87,0.00,,,0.00,weatherlink.com 1.10,2013-09-27 03:06:00,
2013-09-26 23:21:00,76.2,73.0,29.83,NNW,341,1.0,5.0,88,0.00,,,0.00,weatherlink.com 1.10,2013-09-27 03:21:00,
2013-09-26 23:36:00,76.1,72.0,29.83,ENE,77,2.0,4.0,88,0.00,,,0.00,weatherlink.com 1.10,2013-09-27 03:36:00,
2013-09-26 23:51:00,75.9,72.0,29.83,NW,313,3.0,5.0,88,0.00,,,0.00,weatherlink.com 1.10,2013-09-27 03:51:00,